This is the latest recevied weather packets stored in our database for station/object DL1GHN-6. If no packets are shown the sender has not sent any weather packets the latest 10 day(s).
| Time | Temp. | Humidity | Pressure | Rain* | Wind** | Luminosity | Snow |
|---|---|---|---|---|---|---|---|
| 1777974619 | 17.22° C | 78% | 1008.8 hPa | 0 mm | - | 241 W/m² | - |
| 1777974317 | 17.22° C | 76% | 1008.8 hPa | 0 mm | - | 258 W/m² | - |
| 1777974019 | 17.22° C | 78% | 1008.9 hPa | 0 mm | - | 288 W/m² | - |
| 1777973718 | 16.67° C | 78% | 1008.9 hPa | 0 mm | - | 304 W/m² | - |
| 1777973417 | 16.67° C | 78% | 1009 hPa | 0 mm | - | 290 W/m² | - |
| 1777973117 | 16.67° C | 78% | 1009 hPa | 0 mm | - | 315 W/m² | - |
| 1777972817 | 16.67° C | 78% | 1009.1 hPa | 0 mm | - | 295 W/m² | - |
| 1777972517 | 17.22° C | 80% | 1009.1 hPa | 0 mm | - | 390 W/m² | - |
| 1777972218 | 16.67° C | 80% | 1009.2 hPa | 0 mm | - | 448 W/m² | - |
| 1777971917 | 16.67° C | 82% | 1009.2 hPa | 0 mm | - | 432 W/m² | - |
| 1777971618 | 16.67° C | 82% | 1009.3 hPa | 0 mm | - | 417 W/m² | - |
| 1777971318 | 16.67° C | 82% | 1009.3 hPa | 0 mm | - | 367 W/m² | - |
| 1777971018 | 16.67° C | 82% | 1009.3 hPa | 0 mm | - | 265 W/m² | - |
| 1777970718 | 16.11° C | 84% | 1009.3 hPa | 0 mm | - | 290 W/m² | - |
| 1777970417 | 15.56° C | 84% | 1009.3 hPa | 0 mm | - | 251 W/m² | - |
| 1777970118 | 15.56° C | 84% | 1009.4 hPa | 0.25 mm | - | 366 W/m² | - |
| 1777969819 | 15.56° C | 86% | 1009.3 hPa | 0.25 mm | - | 327 W/m² | - |
| 1777969518 | 15° C | 87% | 1009.3 hPa | 0.51 mm | - | 434 W/m² | - |
| 1777969218 | 15° C | 86% | 1009.5 hPa | 0.51 mm | - | 387 W/m² | - |
| 1777968917 | 14.44° C | 86% | 1009.4 hPa | 0.51 mm | - | 243 W/m² | - |
| 1777968618 | 14.44° C | 86% | 1009.4 hPa | 0.51 mm | - | 209 W/m² | - |
| 1777968318 | 14.44° C | 86% | 1009.5 hPa | 0.51 mm | - | 188 W/m² | - |
| 1777968018 | 14.44° C | 87% | 1009.5 hPa | 0.51 mm | - | 186 W/m² | - |
| 1777967717 | 14.44° C | 87% | 1009.5 hPa | 0.51 mm | - | 179 W/m² | - |
| 1777967417 | 14.44° C | 87% | 1009.5 hPa | 0.51 mm | - | 160 W/m² | - |
* Rain latest hour (hover to see other rain measurements)
** Current wind speed in m/s (hover to see current wind gust speed)